Date String (YYYY-MM-DD hh:mm:ss) UTC,Instrument flags,Ambient pressure (hPa),Sample flow (lpm),Bypass flow (lpm),Sample temperature (°C),Ambient temperature (°C),ASC tube jacket temperature (°C),LED temperature (°C),Box temperature (°C),Sample RH (%),Span deviation,Mass concentration (μg/m³),Mass concentration (μg/m³),Mass concentration (μg/m³)
DateTimeUTC,F1_M11,P_M11,Q1_M11,Q2_M11,T1_M11,T2_M11,T3_M11,T4_M11,T5_M11,U1_M11,ZSPAN_M11,X2_M11,X0_M11,X1_M11
2023-05-22 16:00:00,,0831.2,5.01,0.00,29.2,27.8,00.0,37.5,30.9,20.7,0003.6,0022.92,0032.08,0021.76
2023-05-22 16:01:00,,0831.1,4.99,0.00,29.3,27.8,00.0,37.5,30.9,21.1,0003.5,0022.95,0032.31,0021.79
2023-05-22 16:02:00,,0831.2,4.99,0.00,29.3,27.8,00.0,37.5,30.9,21.1,0003.4,0022.99,0032.40,0021.81
2023-05-22 16:03:00,,0831.2,5.01,0.00,29.3,27.8,00.0,37.5,30.9,21.9,0003.4,0023.02,0032.23,0021.80
2023-05-22 16:04:00,,0831.2,5.00,0.00,29.3,27.8,00.0,37.5,30.9,21.9,0003.3,0022.94,0031.97,0021.76
2023-05-22 16:05:00,,0831.2,4.98,0.00,29.3,27.9,00.0,37.5,30.9,22.2,0003.3,0022.85,0031.69,0021.72
2023-05-22 16:06:00,,0831.2,5.01,0.00,29.3,27.9,00.0,37.6,31.0,21.7,0003.3,0022.85,0031.70,0021.73
2023-05-22 16:07:00,,0831.2,5.01,0.00,29.3,27.9,00.0,37.6,31.0,21.2,0003.2,0022.88,0032.75,0021.75
2023-05-22 16:08:00,,0831.2,5.01,0.00,29.3,27.9,00.0,37.6,31.0,21.9,0003.1,0022.92,0032.78,0021.76
2023-05-22 16:09:00,,0831.2,4.98,0.00,29.3,27.9,00.0,37.6,31.0,22.1,0003.0,0022.88,0032.26,0021.73
2023-05-22 16:10:00,,0831.2,4.99,0.00,29.4,27.9,00.0,37.6,31.0,21.7,0003.0,0022.85,0032.59,0021.72
2023-05-22 16:11:00,,0831.2,5.00,0.00,29.4,27.9,00.0,37.6,31.0,21.4,0003.0,0022.85,0032.28,0021.75
2023-05-22 16:12:00,,0831.2,5.01,0.00,29.4,28.0,00.0,37.6,31.0,21.6,0003.0,0022.84,0032.37,0021.75
2023-05-22 16:13:00,,0831.2,5.00,0.00,29.4,28.0,00.0,37.7,31.0,21.8,0003.1,0022.83,0032.95,0021.74
2023-05-22 16:14:00,,0831.2,5.00,0.00,29.4,28.0,00.0,37.7,31.1,21.2,0003.2,0022.78,0033.30,0021.72
2023-05-22 16:15:00,,0831.2,5.00,0.00,29.4,28.0,00.0,37.7,31.1,21.1,0003.2,0022.79,0034.10,0021.72
2023-05-22 16:16:00,,0831.3,5.01,0.00,29.4,28.0,00.0,37.7,31.1,21.1,0003.3,0022.80,0035.35,0021.70
2023-05-22 16:17:00,,0831.2,4.99,0.00,29.5,28.0,00.0,37.7,31.1,21.7,0003.2,0022.79,0036.53,0021.68
2023-05-22 16:18:00,,0831.2,5.00,0.00,29.5,28.0,00.0,37.7,31.1,22.4,0003.3,0022.70,0035.67,0021.63
2023-05-22 16:19:00,,0831.2,4.99,0.00,29.5,28.1,00.0,37.7,31.1,21.4,0003.4,0022.63,0035.47,0021.57
2023-05-22 16:20:00,,0831.2,5.00,0.00,29.5,28.1,00.0,37.7,31.1,21.5,0003.4,0022.60,0035.32,0021.52
2023-05-22 16:21:00,,0831.2,5.00,0.00,29.5,28.1,00.0,37.8,31.1,21.0,0003.3,0022.54,0034.78,0021.45
2023-05-22 16:22:00,,0831.2,5.00,0.00,29.5,28.1,00.0,37.8,31.1,21.3,0003.3,0022.49,0035.12,0021.37
2023-05-22 16:23:00,,0831.2,4.98,0.00,29.5,28.1,00.0,37.8,31.2,22.2,0003.3,0022.45,0034.99,0021.31
2023-05-22 16:24:00,,0831.2,5.00,0.00,29.5,28.1,00.0,37.8,31.2,22.5,0003.3,0022.41,0034.83,0021.27
2023-05-22 16:25:00,,0831.2,5.01,0.00,29.6,28.1,00.0,37.8,31.2,22.5,0003.3,0022.44,0034.58,0021.27
2023-05-22 16:26:00,,0831.2,5.01,0.00,29.6,28.2,00.0,37.8,31.2,22.1,0003.3,0022.44,0033.85,0021.22
2023-05-22 16:27:00,,0831.2,4.99,0.00,29.6,28.2,00.0,37.8,31.2,23.0,0003.3,0022.40,0032.49,0021.19
2023-05-22 16:28:00,,0831.2,5.00,0.00,29.6,28.2,00.0,37.8,31.2,22.7,0003.4,0022.36,0031.35,0021.14
2023-05-22 16:29:00,,0831.2,5.01,0.00,29.6,28.2,00.0,37.9,31.2,22.1,0003.4,0022.37,0030.87,0021.12
2023-05-22 16:30:00,,0831.2,5.01,0.00,29.6,28.2,00.0,37.9,31.3,22.2,0003.3,0022.38,0031.12,0021.09
2023-05-22 16:31:00,,0831.2,4.99,0.00,29.6,28.2,00.0,37.9,31.3,21.3,0003.3,0022.37,0031.13,0021.07
2023-05-22 16:32:00,,0831.2,5.01,0.00,29.6,28.2,00.0,37.9,31.3,21.5,0003.4,0022.33,0031.17,0021.04
2023-05-22 16:33:00,,0831.2,5.00,0.00,29.7,28.2,00.0,37.9,31.3,21.8,0003.4,0022.29,0031.58,0020.99
2023-05-22 16:34:00,,0831.2,4.98,0.00,29.7,28.2,00.0,37.9,31.3,21.9,0003.4,0022.20,0031.09,0020.93
2023-05-22 16:35:00,,0831.2,5.00,0.00,29.7,28.2,00.0,37.9,31.3,22.3,0003.4,0022.13,0030.55,0020.89
2023-05-22 16:36:00,,0831.2,5.00,0.00,29.7,28.3,00.0,37.9,31.3,22.2,0003.3,0022.05,0030.31,0020.84
2023-05-22 16:37:00,,0831.2,5.00,0.00,29.7,28.3,00.0,38.0,31.3,21.2,0003.3,0021.98,0030.65,0020.79
2023-05-22 16:38:00,,0831.2,5.01,0.00,29.7,28.3,00.0,38.0,31.3,20.7,0003.3,0021.91,0030.85,0020.73
2023-05-22 16:39:00,,0831.2,4.99,0.00,29.7,28.3,00.0,38.0,31.3,20.1,0003.3,0021.78,0030.54,0020.63
2023-05-22 16:40:00,,0831.2,4.99,0.00,29.7,28.3,00.0,38.0,31.4,20.4,0003.2,0021.68,0030.36,0020.56
2023-05-22 16:41:00,,0831.2,5.01,0.00,29.8,28.3,00.0,38.0,31.4,21.3,0003.2,0021.61,0030.13,0020.51
2023-05-22 16:42:00,,0831.2,5.00,0.00,29.8,28.3,00.0,38.0,31.4,21.7,0003.2,0021.57,0030.10,0020.50
2023-05-22 16:43:00,,0831.1,5.01,0.00,29.8,28.4,00.0,38.0,31.4,21.7,0003.3,0021.56,0030.71,0020.49
2023-05-22 16:44:00,,0831.1,5.00,0.00,29.8,28.4,00.0,38.0,31.4,21.6,0003.2,0021.53,0030.34,0020.50
2023-05-22 16:45:00,,0831.1,4.99,0.00,29.8,28.4,00.0,38.1,31.4,21.7,0003.2,0021.52,0031.02,0020.52
2023-05-22 16:46:00,,0831.1,5.01,0.00,29.8,28.4,00.0,38.1,31.4,21.6,0003.1,0021.49,0031.20,0020.49
2023-05-22 16:47:00,,0831.1,5.00,0.00,29.8,28.4,00.0,38.1,31.4,21.7,0003.1,0021.50,0031.15,0020.49
2023-05-22 16:48:00,,0831.1,5.00,0.00,29.8,28.4,00.0,38.1,31.5,22.1,0003.2,0021.51,0031.33,0020.51
2023-05-22 16:49:00,,0831.1,5.00,0.00,29.9,28.4,00.0,38.1,31.5,21.9,0003.2,0021.55,0031.20,0020.53
2023-05-22 16:50:00,,0831.1,4.99,0.00,29.9,28.4,00.0,38.1,31.5,22.0,0003.1,0021.55,0031.25,0020.53
2023-05-22 16:51:00,,0831.1,4.98,0.00,29.9,28.5,00.0,38.1,31.5,22.6,0003.1,0021.61,0031.73,0020.55
2023-05-22 16:52:00,,0831.2,5.00,0.00,29.9,28.5,00.0,38.1,31.5,22.7,0003.1,0021.68,0032.43,0020.57
2023-05-22 16:53:00,,0831.2,5.00,0.00,29.9,28.5,00.0,38.2,31.5,21.5,0003.0,0021.70,0033.18,0020.54
2023-05-22 16:54:00,,0831.1,5.01,0.00,29.9,28.5,00.0,38.2,31.5,21.2,0002.9,0021.64,0032.34,0020.47
2023-05-22 16:55:00,,0831.1,5.00,0.00,29.9,28.5,00.0,38.2,31.6,22.4,0003.0,0021.58,0031.95,0020.39
2023-05-22 16:56:00,,0831.2,5.00,0.00,30.0,28.5,00.0,38.2,31.6,22.9,0003.2,0021.60,0031.31,0020.36
2023-05-22 16:57:00,,0831.2,5.00,0.00,30.0,28.6,00.0,38.2,31.6,22.9,0003.3,0021.69,0032.29,0020.38
2023-05-22 16:58:00,,0831.1,5.00,0.00,30.0,28.6,00.0,38.2,31.6,22.7,0003.4,0021.69,0033.23,0020.36
2023-05-22 16:59:00,,0831.1,4.99,0.00,30.0,28.6,00.0,38.2,31.6,22.7,0003.4,0021.66,0032.95,0020.31
